| time (UTC) | temp C | wind direction | speed KPH | gust KPH | rain 1hr cm | rain 24hr cm | rain mn cm | humidity % | barometer mb |
| 20260507001513 | 9 | 273 | 12.9 | 0.0 | 0.00 | 0.00 | 0.00 | 41 | 1012.7 |
| 20260507001045 | 9 | 322 | 12.9 | 0.0 | 0.00 | 0.00 | 0.00 | 42 | 1012.7 |
| 20260507000507 | 9 | 262 | 12.9 | 0.0 | 0.00 | 0.00 | 0.00 | 42 | 1012.7 |
| 20260507000031 | 9 | 286 | 12.9 | 0.0 | 0.00 | 0.00 | 0.00 | 42 | 1013.0 |
| 20260506235513 | 9 | 322 | 12.9 | 0.0 | 0.00 | 0.00 | 0.00 | 45 | 1013.0 |
| 20260506235040 | 9 | 298 | 12.9 | 0.0 | 0.00 | 0.00 | 0.00 | 44 | 1013.0 |
| 20260506234521 | 8 | 289 | 12.9 | 0.0 | 0.00 | 0.00 | 0.00 | 44 | 1013.0 |
| 20260506234047 | 8 | 287 | 12.9 | 0.0 | 0.00 | 0.00 | 0.00 | 43 | 1013.0 |
| 20260506233532 | 8 | 319 | 14.5 | 0.0 | 0.00 | 0.00 | 0.00 | 44 | 1013.0 |
| 20260506233054 | 9 | 338 | 16.1 | 0.0 | 0.00 | 0.00 | 0.00 | 44 | 1013.1 |
| 20260506232534 | 8 | 311 | 14.5 | 0.0 | 0.00 | 0.00 | 0.00 | 44 | 1013.1 |
| 20260506232057 | 8 | 283 | 14.5 | 0.0 | 0.00 | 0.00 | 0.00 | 43 | 1013.1 |
| 20260506231535 | 8 | 300 | 16.1 | 0.0 | 0.00 | 0.00 | 0.00 | 43 | 1013.3 |
| 20260506231021 | 8 | 279 | 16.1 | 0.0 | 0.00 | 0.00 | 0.00 | 42 | 1013.3 |
| 20260506230541 | 8 | 276 | 12.9 | 0.0 | 0.00 | 0.00 | 0.00 | 42 | 1013.3 |
| 20260506230009 | 8 | 243 | 11.3 | 0.0 | 0.00 | 0.00 | 0.00 | 43 | 1013.3 |
| 20260506225547 | 8 | 279 | 14.5 | 0.0 | 0.00 | 0.00 | 0.00 | 43 | 1013.3 |
| 20260506225013 | 8 | 284 | 16.1 | 0.0 | 0.00 | 0.00 | 0.00 | 42 | 1013.3 |
| 20260506224539 | 8 | 299 | 14.5 | 0.0 | 0.00 | 0.00 | 0.00 | 44 | 1013.5 |
| 20260506224026 | 8 | 248 | 12.9 | 0.0 | 0.00 | 0.00 | 0.00 | 43 | 1013.5 |
| 20260506223551 | 8 | 288 | 14.5 | 0.0 | 0.00 | 0.00 | 0.00 | 43 | 1013.5 |
| 20260506223037 | 8 | 288 | 17.7 | 0.0 | 0.00 | 0.00 | 0.00 | 43 | 1013.6 |
| 20260506222503 | 8 | 323 | 17.7 | 0.0 | 0.00 | 0.00 | 0.00 | 43 | 1013.6 |
| 20260506222037 | 8 | 289 | 19.3 | 0.0 | 0.00 | 0.00 | 0.00 | 43 | 1013.6 |
| 20260506221521 | 8 | 315 | 17.7 | 0.0 | 0.00 | 0.00 | 0.00 | 44 | 1013.6 |
| 20260506221043 | 8 | 273 | 16.1 | 0.0 | 0.00 | 0.00 | 0.00 | 44 | 1013.6 |
| 20260506220519 | 8 | 313 | 16.1 | 0.0 | 0.00 | 0.00 | 0.00 | 42 | 1013.6 |
| 20260506220059 | 8 | 284 | 14.5 | 0.0 | 0.00 | 0.00 | 0.00 | 44 | 1013.8 |
| 20260506220001 | 8 | 292 | 12.9 | 0.0 | 0.00 | 0.00 | 0.00 | 44 | 1013.8 |
| 20260506215526 | 8 | 277 | 12.9 | 0.0 | 0.00 | 0.00 | 0.00 | 45 | 1013.8 |
| 20260506215007 | 8 | 274 | 17.7 | 0.0 | 0.00 | 0.00 | 0.00 | 45 | 1013.8 |
| 20260506214529 | 8 | 277 | 19.3 | 0.0 | 0.00 | 0.00 | 0.00 | 44 | 1013.8 |
| 20260506214053 | 8 | 281 | 20.9 | 0.0 | 0.00 | 0.00 | 0.00 | 45 | 1013.8 |
| 20260506213535 | 8 | 259 | 19.3 | 0.0 | 0.00 | 0.00 | 0.00 | 44 | 1013.8 |
| 20260506213057 | 8 | 277 | 16.1 | 0.0 | 0.00 | 0.00 | 0.00 | 47 | 1014.2 |
| 20260506213001 | 8 | 309 | 16.1 | 0.0 | 0.00 | 0.00 | 0.00 | 46 | 1014.2 |
| 20260506212527 | 8 | 319 | 17.7 | 0.0 | 0.00 | 0.00 | 0.00 | 45 | 1014.2 |
| 20260506212057 | 8 | 296 | 19.3 | 0.0 | 0.00 | 0.00 | 0.00 | 44 | 1014.2 |
| 20260506212007 | 8 | 274 | 19.3 | 0.0 | 0.00 | 0.00 | 0.00 | 44 | 1014.2 |
| 20260506211543 | 8 | 303 | 22.5 | 0.0 | 0.00 | 0.00 | 0.00 | 43 | 1014.0 |
| 20260506211033 | 8 | 291 | 22.5 | 0.0 | 0.00 | 0.00 | 0.00 | 45 | 1014.0 |
| 20260506210547 | 8 | 257 | 20.9 | 0.0 | 0.00 | 0.00 | 0.00 | 44 | 1014.0 |
| 20260506210013 | 8 | 276 | 17.7 | 0.0 | 0.00 | 0.00 | 0.00 | 44 | 1014.1 |
| 20260506205547 | 8 | 288 | 19.3 | 0.0 | 0.00 | 0.00 | 0.00 | 43 | 1014.1 |
| 20260506205038 | 8 | 319 | 20.9 | 0.0 | 0.00 | 0.00 | 0.00 | 46 | 1014.1 |
| 20260506204600 | 8 | 291 | 20.9 | 0.0 | 0.00 | 0.00 | 0.00 | 45 | 1014.4 |
| 20260506204501 | 8 | 257 | 20.9 | 0.0 | 0.00 | 0.00 | 0.00 | 46 | 1014.4 |
| 20260506204042 | 8 | 257 | 19.3 | 0.0 | 0.00 | 0.00 | 0.00 | 46 | 1014.4 |
| 20260506203505 | 8 | 258 | 17.7 | 0.0 | 0.00 | 0.00 | 0.00 | 45 | 1014.4 |
| 20260506203029 | 8 | 288 | 17.7 | 0.0 | 0.00 | 0.00 | 0.00 | 45 | 1014.6 |
| 20260506202511 | 8 | 266 | 17.7 | 0.0 | 0.00 | 0.00 | 0.00 | 44 | 1014.6 |
| 20260506202031 | 8 | 329 | 16.1 | 0.0 | 0.00 | 0.00 | 0.00 | 47 | 1014.6 |
| 20260506201508 | 7 | 281 | 14.5 | 0.0 | 0.00 | 0.00 | 0.00 | 47 | 1014.6 |
| 20260506201048 | 8 | 272 | 16.1 | 0.0 | 0.00 | 0.00 | 0.00 | 46 | 1014.6 |
| 20260506200512 | 8 | 305 | 16.1 | 0.0 | 0.00 | 0.00 | 0.00 | 46 | 1014.6 |
| 20260506200052 | 7 | 294 | 16.1 | 0.0 | 0.00 | 0.00 | 0.00 | 49 | 1014.7 |
| 20260506195527 | 7 | 271 | 17.7 | 0.0 | 0.00 | 0.00 | 0.00 | 48 | 1014.7 |
| 20260506195045 | 7 | 290 | 16.1 | 0.0 | 0.00 | 0.00 | 0.00 | 46 | 1014.7 |
| 20260506194539 | 7 | 300 | 16.1 | 0.0 | 0.00 | 0.00 | 0.00 | 49 | 1014.8 |
| 20260506194055 | 7 | 315 | 16.1 | 0.0 | 0.00 | 0.00 | 0.00 | 48 | 1014.8 |
| 20260506193520 | 7 | 270 | 14.5 | 0.0 | 0.00 | 0.00 | 0.00 | 48 | 1014.8 |
| 20260506193057 | 7 | 271 | 17.7 | 0.0 | 0.00 | 0.00 | 0.00 | 48 | 1014.8 |
| 20260506192526 | 7 | 283 | 20.9 | 0.0 | 0.00 | 0.00 | 0.00 | 46 | 1014.8 |
| 20260506192007 | 7 | 313 | 19.3 | 0.0 | 0.00 | 0.00 | 0.00 | 48 | 1014.8 |
| 20260506191531 | 7 | 296 | 19.3 | 0.0 | 0.00 | 0.00 | 0.00 | 47 | 1015.1 |
| 20260506191057 | 7 | 304 | 17.7 | 0.0 | 0.00 | 0.00 | 0.00 | 48 | 1015.1 |
| 20260506190541 | 7 | 290 | 19.3 | 0.0 | 0.00 | 0.00 | 0.00 | 47 | 1015.1 |
| 20260506190007 | 7 | 273 | 20.9 | 0.0 | 0.00 | 0.00 | 0.00 | 47 | 1015.2 |
| 20260506185531 | 7 | 301 | 19.3 | 0.0 | 0.00 | 0.00 | 0.00 | 48 | 1015.2 |
| 20260506185014 | 7 | 309 | 16.1 | 0.0 | 0.00 | 0.00 | 0.00 | 51 | 1015.2 |
| 20260506184553 | 7 | 307 | 14.5 | 0.0 | 0.00 | 0.00 | 0.00 | 50 | 1015.3 |
| 20260506184015 | 7 | 320 | 16.1 | 0.0 | 0.00 | 0.00 | 0.00 | 49 | 1015.3 |
| 20260506183549 | 6 | 321 | 19.3 | 0.0 | 0.00 | 0.00 | 0.00 | 50 | 1015.3 |
| 20260506183012 | 6 | 277 | 19.3 | 0.0 | 0.00 | 0.00 | 0.00 | 48 | 1015.4 |
| 20260506182536 | 6 | 310 | 22.5 | 0.0 | 0.00 | 0.00 | 0.00 | 49 | 1015.4 |
| 20260506182019 | 6 | 312 | 25.7 | 0.0 | 0.00 | 0.00 | 0.00 | 51 | 1015.4 |
| 20260506181543 | 6 | 317 | 24.1 | 0.0 | 0.00 | 0.00 | 0.00 | 53 | 1015.5 |
| 20260506181032 | 6 | 298 | 19.3 | 0.0 | 0.00 | 0.00 | 0.00 | 50 | 1015.5 |
| 20260506180545 | 6 | 315 | 19.3 | 0.0 | 0.00 | 0.00 | 0.00 | 51 | 1015.5 |
| 20260506180033 | 6 | 278 | 19.3 | 0.0 | 0.00 | 0.00 | 0.00 | 49 | 1015.7 |
| 20260506175550 | 6 | 306 | 22.5 | 0.0 | 0.00 | 0.00 | 0.00 | 50 | 1015.7 |
| 20260506175031 | 6 | 320 | 24.1 | 0.0 | 0.00 | 0.00 | 0.00 | 51 | 1015.7 |
| 20260506174513 | 6 | 314 | 22.5 | 0.0 | 0.00 | 0.00 | 0.00 | 52 | 1015.9 |
| 20260506174035 | 5 | 303 | 20.9 | 0.0 | 0.00 | 0.00 | 0.00 | 52 | 1015.9 |
| 20260506173510 | 6 | 333 | 19.3 | 0.0 | 0.00 | 0.00 | 0.00 | 53 | 1015.9 |
| 20260506173046 | 6 | 304 | 22.5 | 0.0 | 0.00 | 0.00 | 0.00 | 50 | 1016.1 |
| 20260506172519 | 5 | 309 | 22.5 | 0.0 | 0.00 | 0.00 | 0.00 | 52 | 1016.1 |
| 20260506172052 | 5 | 315 | 24.1 | 0.0 | 0.00 | 0.00 | 0.00 | 51 | 1016.1 |
| 20260506171550 | 5 | 322 | 24.1 | 0.0 | 0.00 | 0.00 | 0.00 | 52 | 1015.9 |
| 20260506171059 | 5 | 314 | 20.9 | 0.0 | 0.00 | 0.00 | 0.00 | 52 | 1015.9 |
| 20260506171001 | 5 | 309 | 20.9 | 0.0 | 0.00 | 0.00 | 0.00 | 51 | 1015.9 |
| 20260506170524 | 5 | 283 | 20.9 | 0.0 | 0.00 | 0.00 | 0.00 | 52 | 1015.9 |
| 20260506170005 | 5 | 330 | 22.5 | 0.0 | 0.00 | 0.00 | 0.00 | 54 | 1016.1 |
| 20260506165533 | 5 | 321 | 20.9 | 0.0 | 0.00 | 0.00 | 0.00 | 52 | 1016.1 |
| 20260506165051 | 5 | 318 | 19.3 | 0.0 | 0.00 | 0.00 | 0.00 | 53 | 1016.1 |
| 20260506164535 | 5 | 298 | 19.3 | 0.0 | 0.00 | 0.00 | 0.00 | 56 | 1016.1 |
| 20260506164019 | 5 | 280 | 20.9 | 0.0 | 0.00 | 0.00 | 0.00 | 52 | 1016.1 |
| 20260506163553 | 5 | 267 | 20.9 | 0.0 | 0.00 | 0.00 | 0.00 | 53 | 1016.1 |
| 20260506163038 | 5 | 294 | 20.9 | 0.0 | 0.00 | 0.00 | 0.00 | 51 | 1016.3 |
| 20260506162546 | 5 | 282 | 20.9 | 0.0 | 0.00 | 0.00 | 0.00 | 52 | 1016.3 |
| 20260506162037 | 5 | 275 | 19.3 | 0.0 | 0.00 | 0.00 | 0.00 | 52 | 1016.3 |
| 20260506161559 | 5 | 319 | 17.7 | 0.0 | 0.00 | 0.00 | 0.00 | 53 | 1016.2 |
| 20260506161037 | 5 | 270 | 20.9 | 0.0 | 0.00 | 0.00 | 0.00 | 53 | 1016.2 |
| 20260506160553 | 5 | 309 | 20.9 | 0.0 | 0.00 | 0.00 | 0.00 | 52 | 1016.2 |
| 20260506160037 | 5 | 301 | 20.9 | 0.0 | 0.00 | 0.00 | 0.00 | 51 | 1016.3 |
| 20260506155558 | 5 | 292 | 20.9 | 0.0 | 0.00 | 0.00 | 0.00 | 54 | 1016.3 |
| 20260506155501 | 5 | 269 | 20.9 | 0.0 | 0.00 | 0.00 | 0.00 | 54 | 1016.3 |
| 20260506155025 | 5 | 280 | 22.5 | 0.0 | 0.00 | 0.00 | 0.00 | 51 | 1016.3 |
| 20260506154516 | 5 | 273 | 20.9 | 0.0 | 0.00 | 0.00 | 0.00 | 53 | 1016.4 |
| 20260506154049 | 5 | 326 | 19.3 | 0.0 | 0.00 | 0.00 | 0.00 | 52 | 1016.4 |
| 20260506153516 | 5 | 271 | 19.3 | 0.0 | 0.00 | 0.00 | 0.00 | 55 | 1016.4 |
| 20260506153052 | 5 | 268 | 22.5 | 0.0 | 0.00 | 0.00 | 0.00 | 54 | 1016.2 |
| 20260506152533 | 5 | 298 | 22.5 | 0.0 | 0.00 | 0.00 | 0.00 | 54 | 1016.2 |
| 20260506152011 | 4 | 298 | 20.9 | 0.0 | 0.00 | 0.00 | 0.00 | 56 | 1016.2 |
| 20260506151539 | 4 | 284 | 20.9 | 0.0 | 0.00 | 0.00 | 0.00 | 54 | 1016.3 |
| 20260506151019 | 4 | 314 | 19.3 | 0.0 | 0.00 | 0.00 | 0.00 | 55 | 1016.3 |
| 20260506150601 | 4 | 300 | 17.7 | 0.0 | 0.00 | 0.00 | 0.00 | 56 | 1016.3 |
| 20260506150502 | 4 | 293 | 19.3 | 0.0 | 0.00 | 0.00 | 0.00 | 56 | 1016.3 |
| 20260506150025 | 4 | 299 | 19.3 | 0.0 | 0.00 | 0.00 | 0.00 | 56 | 1016.3 |
| 20260506145511 | 4 | 319 | 20.9 | 0.0 | 0.00 | 0.00 | 0.00 | 56 | 1016.3 |
| 20260506145046 | 3 | 344 | 19.3 | 0.0 | 0.00 | 0.00 | 0.00 | 57 | 1016.3 |
| 20260506144510 | 3 | 302 | 16.1 | 0.0 | 0.00 | 0.00 | 0.00 | 58 | 1016.4 |
| 20260506144036 | 3 | 315 | 16.1 | 0.0 | 0.00 | 0.00 | 0.00 | 58 | 1016.4 |
| 20260506143516 | 3 | 288 | 17.7 | 0.0 | 0.00 | 0.00 | 0.00 | 60 | 1016.4 |
| 20260506143039 | 3 | 303 | 17.7 | 0.0 | 0.00 | 0.00 | 0.00 | 58 | 1016.5 |
| 20260506142521 | 3 | 327 | 17.7 | 0.0 | 0.00 | 0.00 | 0.00 | 57 | 1016.5 |
| 20260506142052 | 3 | 290 | 17.7 | 0.0 | 0.00 | 0.00 | 0.00 | 58 | 1016.5 |
| 20260506141538 | 3 | 300 | 16.1 | 0.0 | 0.00 | 0.00 | 0.00 | 58 | 1016.4 |
| 20260506141013 | 3 | 313 | 16.1 | 0.0 | 0.00 | 0.00 | 0.00 | 58 | 1016.4 |
| 20260506140552 | 3 | 274 | 14.5 | 0.0 | 0.00 | 0.00 | 0.00 | 59 | 1016.4 |
| 20260506140016 | 2 | 316 | 17.7 | 0.0 | 0.00 | 0.00 | 0.00 | 59 | 1016.3 |
| 20260506135555 | 2 | 342 | 19.3 | 0.0 | 0.00 | 0.00 | 0.00 | 60 | 1016.3 |
| 20260506135020 | 2 | 323 | 17.7 | 0.0 | 0.00 | 0.00 | 0.00 | 60 | 1016.3 |
| 20260506134558 | 2 | 310 | 14.5 | 0.0 | 0.00 | 0.00 | 0.00 | 61 | 1016.3 |
| 20260506134501 | 2 | 294 | 14.5 | 0.0 | 0.00 | 0.00 | 0.00 | 61 | 1016.3 |
| 20260506134022 | 2 | 305 | 12.9 | 0.0 | 0.00 | 0.00 | 0.00 | 62 | 1016.3 |
| 20260506133601 | 2 | 284 | 12.9 | 0.0 | 0.00 | 0.00 | 0.00 | 62 | 1016.3 |
| 20260506133038 | 2 | 284 | 9.7 | 0.0 | 0.00 | 0.00 | 0.00 | 64 | 1016.2 |
| 20260506132556 | 2 | 284 | 8.0 | 0.0 | 0.00 | 0.00 | 0.00 | 65 | 1016.2 |
| 20260506132040 | 2 | 305 | 9.7 | 0.0 | 0.00 | 0.00 | 0.00 | 66 | 1016.2 |
| 20260506131521 | 2 | 285 | 8.0 | 0.0 | 0.00 | 0.00 | 0.00 | 66 | 1016.1 |
| 20260506131057 | 2 | 286 | 8.0 | 0.0 | 0.00 | 0.00 | 0.00 | 67 | 1016.1 |
| 20260506130539 | 2 | 250 | 8.0 | 0.0 | 0.00 | 0.00 | 0.00 | 65 | 1016.1 |
| 20260506130017 | 2 | 274 | 8.0 | 0.0 | 0.00 | 0.00 | 0.00 | 66 | 1016.1 |
| 20260506125538 | 1 | 289 | 8.0 | 0.0 | 0.00 | 0.00 | 0.00 | 66 | 1016.1 |
| 20260506125016 | 1 | 281 | 6.4 | 0.0 | 0.00 | 0.00 | 0.00 | 66 | 1016.1 |
| 20260506124600 | 1 | 272 | 6.4 | 0.0 | 0.00 | 0.00 | 0.00 | 68 | 1016.0 |
| 20260506124027 | 1 | 281 | 4.8 | 0.0 | 0.00 | 0.00 | 0.00 | 70 | 1016.0 |
| 20260506123600 | 1 | 288 | 4.8 | 0.0 | 0.00 | 0.00 | 0.00 | 71 | 1016.0 |
| 20260506123505 | 1 | 259 | 4.8 | 0.0 | 0.00 | 0.00 | 0.00 | 71 | 1016.0 |
| 20260506123030 | 1 | 268 | 4.8 | 0.0 | 0.00 | 0.00 | 0.00 | 72 | 1015.7 |
| 20260506122510 | 1 | 259 | 6.4 | 0.0 | 0.00 | 0.00 | 0.00 | 73 | 1015.7 |
| 20260506122030 | 1 | 259 | 6.4 | 0.0 | 0.00 | 0.00 | 0.00 | 73 | 1015.7 |
| 20260506121508 | 1 | 249 | 8.0 | 0.0 | 0.00 | 0.00 | 0.00 | 73 | 1015.5 |
| 20260506121029 | 0 | 248 | 8.0 | 0.0 | 0.00 | 0.00 | 0.00 | 74 | 1015.5 |
| 20260506120508 | 0 | 246 | 6.4 | 0.0 | 0.00 | 0.00 | 0.00 | 74 | 1015.5 |
| 20260506120033 | 0 | 252 | 6.4 | 0.0 | 0.00 | 0.00 | 0.00 | 74 | 1015.4 |
| 20260506115547 | 0 | 253 | 6.4 | 0.0 | 0.00 | 0.00 | 0.00 | 73 | 1015.4 |
| 20260506115031 | 0 | 257 | 4.8 | 0.0 | 0.00 | 0.00 | 0.00 | 73 | 1015.4 |
| 20260506114556 | 0 | 270 | 4.8 | 0.0 | 0.00 | 0.00 | 0.00 | 72 | 1015.1 |
| 20260506114028 | 0 | 271 | 4.8 | 0.0 | 0.00 | 0.00 | 0.00 | 73 | 1015.1 |
| 20260506113558 | 0 | 279 | 4.8 | 0.0 | 0.00 | 0.00 | 0.00 | 72 | 1015.1 |
| 20260506113502 | 0 | 279 | 4.8 | 0.0 | 0.00 | 0.00 | 0.00 | 72 | 1015.1 |
| 20260506113041 | 0 | 279 | 4.8 | 0.0 | 0.00 | 0.00 | 0.00 | 72 | 1015.0 |
| 20260506112526 | 0 | 284 | 4.8 | 0.0 | 0.00 | 0.00 | 0.00 | 72 | 1015.0 |
| 20260506112056 | 0 | 289 | 3.2 | 0.0 | 0.00 | 0.00 | 0.00 | 72 | 1015.0 |
| 20260506111543 | 0 | 289 | 4.8 | 0.0 | 0.00 | 0.00 | 0.00 | 71 | 1015.0 |
| 20260506111009 | 0 | 284 | 4.8 | 0.0 | 0.00 | 0.00 | 0.00 | 71 | 1015.0 |
| 20260506110533 | 0 | 284 | 4.8 | 0.0 | 0.00 | 0.00 | 0.00 | 71 | 1015.0 |
| 20260506110013 | 0 | 283 | 4.8 | 0.0 | 0.00 | 0.00 | 0.00 | 71 | 1014.7 |
| 20260506105537 | 0 | 286 | 4.8 | 0.0 | 0.00 | 0.00 | 0.00 | 71 | 1014.7 |
| 20260506105015 | 0 | 287 | 6.4 | 0.0 | 0.00 | 0.00 | 0.00 | 71 | 1014.7 |
| 20260506104543 | 0 | 290 | 6.4 | 0.0 | 0.00 | 0.00 | 0.00 | 71 | 1014.6 |
| 20260506104056 | 0 | 279 | 6.4 | 0.0 | 0.00 | 0.00 | 0.00 | 71 | 1014.6 |
| 20260506103540 | 0 | 277 | 4.8 | 0.0 | 0.00 | 0.00 | 0.00 | 72 | 1014.6 |
| 20260506103023 | 0 | 283 | 4.8 | 0.0 | 0.00 | 0.00 | 0.00 | 71 | 1014.6 |
| 20260506102547 | 0 | 288 | 4.8 | 0.0 | 0.00 | 0.00 | 0.00 | 71 | 1014.6 |
| 20260506102011 | 0 | 297 | 4.8 | 0.0 | 0.00 | 0.00 | 0.00 | 71 | 1014.6 |
| 20260506101547 | 0 | 297 | 4.8 | 0.0 | 0.00 | 0.00 | 0.00 | 71 | 1014.5 |
| 20260506101024 | 0 | 282 | 3.2 | 0.0 | 0.00 | 0.00 | 0.00 | 71 | 1014.5 |
| 20260506100506 | 0 | 301 | 3.2 | 0.0 | 0.00 | 0.00 | 0.00 | 70 | 1014.5 |
| 20260506100041 | 0 | 312 | 6.4 | 0.0 | 0.00 | 0.00 | 0.00 | 70 | 1014.4 |
| 20260506095524 | 0 | 321 | 9.7 | 0.0 | 0.00 | 0.00 | 0.00 | 69 | 1014.4 |
| 20260506095044 | 0 | 318 | 11.3 | 0.0 | 0.00 | 0.00 | 0.00 | 69 | 1014.4 |
| 20260506094529 | 0 | 320 | 8.0 | 0.0 | 0.00 | 0.00 | 0.00 | 69 | 1014.5 |
| 20260506094050 | 1 | 312 | 4.8 | 0.0 | 0.00 | 0.00 | 0.00 | 68 | 1014.5 |
| 20260506093534 | 1 | 307 | 3.2 | 0.0 | 0.00 | 0.00 | 0.00 | 68 | 1014.5 |
| 20260506093013 | 1 | 294 | 3.2 | 0.0 | 0.00 | 0.00 | 0.00 | 68 | 1014.8 |
| 20260506092548 | 1 | 273 | 4.8 | 0.0 | 0.00 | 0.00 | 0.00 | 68 | 1014.8 |
| 20260506092012 | 1 | 295 | 4.8 | 0.0 | 0.00 | 0.00 | 0.00 | 69 | 1014.8 |
| 20260506091535 | 1 | 286 | 4.8 | 0.0 | 0.00 | 0.00 | 0.00 | 69 | 1014.3 |
| 20260506091017 | 1 | 296 | 4.8 | 0.0 | 0.00 | 0.00 | 0.00 | 69 | 1014.3 |
| 20260506090536 | 1 | 317 | 8.0 | 0.0 | 0.00 | 0.00 | 0.00 | 68 | 1014.3 |
| 20260506090108 | 1 | 315 | 8.0 | 0.0 | 0.00 | 0.00 | 0.00 | 69 | 1014.1 |
| 20260506085538 | 1 | 326 | 8.0 | 0.0 | 0.00 | 0.00 | 0.00 | 69 | 1014.1 |
| 20260506085056 | 1 | 307 | 8.0 | 0.0 | 0.00 | 0.00 | 0.00 | 69 | 1014.1 |
| 20260506084525 | 1 | 330 | 8.0 | 0.0 | 0.00 | 0.00 | 0.00 | 69 | 1013.6 |
| 20260506084007 | 1 | 318 | 8.0 | 0.0 | 0.00 | 0.00 | 0.00 | 69 | 1013.6 |
| 20260506083533 | 1 | 317 | 8.0 | 0.0 | 0.00 | 0.00 | 0.00 | 69 | 1013.6 |
| 20260506083012 | 1 | 319 | 6.4 | 0.0 | 0.00 | 0.00 | 0.00 | 69 | 1013.6 |
| 20260506082537 | 1 | 325 | 6.4 | 0.0 | 0.00 | 0.00 | 0.00 | 68 | 1013.6 |
| 20260506082018 | 1 | 323 | 6.4 | 0.0 | 0.00 | 0.00 | 0.00 | 68 | 1013.6 |
| 20260506081550 | 1 | 318 | 6.4 | 0.0 | 0.00 | 0.00 | 0.00 | 68 | 1013.9 |
| 20260506081035 | 1 | 315 | 4.8 | 0.0 | 0.00 | 0.00 | 0.00 | 68 | 1013.9 |
| 20260506080548 | 1 | 313 | 4.8 | 0.0 | 0.00 | 0.00 | 0.00 | 68 | 1013.9 |
| 20260506073505 | 1 | 317 | 3.2 | 0.0 | 0.00 | 0.00 | 0.00 | 67 | 1014.1 |
| 20260506073028 | 2 | 317 | 3.2 | 0.0 | 0.00 | 0.00 | 0.00 | 67 | 1013.8 |
| 20260506072510 | 2 | 318 | 3.2 | 0.0 | 0.00 | 0.00 | 0.00 | 66 | 1013.8 |
| 20260506072033 | 2 | 321 | 4.8 | 0.0 | 0.00 | 0.00 | 0.00 | 66 | 1013.8 |
| 20260506071557 | 2 | 322 | 8.0 | 0.0 | 0.00 | 0.00 | 0.00 | 66 | 1013.8 |
| 20260506071044 | 2 | 318 | 9.7 | 0.0 | 0.00 | 0.00 | 0.00 | 65 | 1013.8 |
| 20260506070601 | 2 | 338 | 9.7 | 0.0 | 0.00 | 0.00 | 0.00 | 66 | 1013.8 |
| 20260506070509 | 2 | 336 | 9.7 | 0.0 | 0.00 | 0.00 | 0.00 | 66 | 1013.8 |
| 20260506062008 | 2 | 322 | 9.7 | 0.0 | 0.00 | 0.00 | 0.00 | 65 | 1013.6 |
| 20260506061532 | 2 | 329 | 8.0 | 0.0 | 0.00 | 0.00 | 0.00 | 66 | 1013.5 |
| 20260506061050 | 2 | 336 | 8.0 | 0.0 | 0.00 | 0.00 | 0.00 | 66 | 1013.5 |
| 20260506060532 | 2 | 321 | 9.7 | 0.0 | 0.00 | 0.00 | 0.00 | 67 | 1013.5 |
| 20260506051008 | 2 | 315 | 4.8 | 0.0 | 0.00 | 0.00 | 0.00 | 65 | 1013.7 |
| 20260506050538 | 2 | 315 | 4.8 | 0.0 | 0.00 | 0.00 | 0.00 | 65 | 1013.7 |
| 20260506045012 | 2 | 314 | 4.8 | 0.0 | 0.00 | 0.00 | 0.00 | 64 | 1013.6 |
| 20260506044546 | 2 | 312 | 3.2 | 0.0 | 0.00 | 0.00 | 0.00 | 64 | 1013.7 |
| 20260506044036 | 2 | 312 | 3.2 | 0.0 | 0.00 | 0.00 | 0.00 | 64 | 1013.7 |
| 20260506043600 | 2 | 311 | 3.2 | 0.0 | 0.00 | 0.00 | 0.00 | 64 | 1013.7 |
| 20260506043038 | 2 | 315 | 1.6 | 0.0 | 0.00 | 0.00 | 0.00 | 63 | 1013.7 |
| 20260506042509 | 2 | 315 | 1.6 | 0.0 | 0.00 | 0.00 | 0.00 | 63 | 1013.7 |
| 20260506042047 | 2 | 315 | 3.2 | 0.0 | 0.00 | 0.00 | 0.00 | 62 | 1013.7 |
| 20260506041514 | 2 | 313 | 4.8 | 0.0 | 0.00 | 0.00 | 0.00 | 62 | 1013.7 |
| 20260506041049 | 2 | 319 | 4.8 | 0.0 | 0.00 | 0.00 | 0.00 | 62 | 1013.7 |
| 20260506040513 | 2 | 316 | 3.2 | 0.0 | 0.00 | 0.00 | 0.00 | 62 | 1013.7 |
| 20260506040053 | 2 | 316 | 3.2 | 0.0 | 0.00 | 0.00 | 0.00 | 61 | 1013.3 |
| 20260506035515 | 2 | 316 | 3.2 | 0.0 | 0.00 | 0.00 | 0.00 | 61 | 1013.3 |
| 20260506035041 | 2 | 315 | 4.8 | 0.0 | 0.00 | 0.00 | 0.00 | 61 | 1013.3 |
| 20260506034527 | 2 | 315 | 3.2 | 0.0 | 0.00 | 0.00 | 0.00 | 61 | 1013.2 |
| 20260506034058 | 2 | 315 | 3.2 | 0.0 | 0.00 | 0.00 | 0.00 | 61 | 1013.2 |
| 20260506034002 | 2 | 315 | 3.2 | 0.0 | 0.00 | 0.00 | 0.00 | 61 | 1013.2 |
| 20260506033544 | 2 | 315 | 3.2 | 0.0 | 0.00 | 0.00 | 0.00 | 61 | 1013.2 |
| 20260506033015 | 2 | 315 | 4.8 | 0.0 | 0.00 | 0.00 | 0.00 | 61 | 1013.1 |
| 20260506032547 | 2 | 315 | 4.8 | 0.0 | 0.00 | 0.00 | 0.00 | 61 | 1013.1 |
| 20260506032027 | 2 | 315 | 6.4 | 0.0 | 0.00 | 0.00 | 0.00 | 61 | 1013.1 |
| 20260506031509 | 2 | 318 | 6.4 | 0.0 | 0.00 | 0.00 | 0.00 | 60 | 1013.1 |
| 20260506031047 | 2 | 319 | 6.4 | 0.0 | 0.00 | 0.00 | 0.00 | 59 | 1013.1 |
| 20260506030514 | 2 | 319 | 8.0 | 0.0 | 0.00 | 0.00 | 0.00 | 59 | 1013.1 |
| 20260506030047 | 2 | 327 | 8.0 | 0.0 | 0.00 | 0.00 | 0.00 | 59 | 1012.7 |
| 20260506025534 | 3 | 329 | 8.0 | 0.0 | 0.00 | 0.00 | 0.00 | 59 | 1012.7 |
| 20260506025053 | 2 | 331 | 8.0 | 0.0 | 0.00 | 0.00 | 0.00 | 59 | 1012.7 |
| 20260506024525 | 2 | 327 | 8.0 | 0.0 | 0.00 | 0.00 | 0.00 | 59 | 1012.6 |
| 20260506024005 | 2 | 321 | 8.0 | 0.0 | 0.00 | 0.00 | 0.00 | 59 | 1012.6 |
| 20260506023525 | 2 | 319 | 6.4 | 0.0 | 0.00 | 0.00 | 0.00 | 59 | 1012.6 |
| 20260506023058 | 2 | 315 | 6.4 | 0.0 | 0.00 | 0.00 | 0.00 | 58 | 1012.3 |
| 20260506023007 | 2 | 318 | 6.4 | 0.0 | 0.00 | 0.00 | 0.00 | 58 | 1012.3 |
| 20260506022548 | 2 | 319 | 8.0 | 0.0 | 0.00 | 0.00 | 0.00 | 57 | 1012.3 |
| 20260506022014 | 3 | 321 | 9.7 | 0.0 | 0.00 | 0.00 | 0.00 | 57 | 1012.3 |
| 20260506021541 | 3 | 327 | 9.7 | 0.0 | 0.00 | 0.00 | 0.00 | 57 | 1011.9 |
| 20260506021023 | 3 | 325 | 11.3 | 0.0 | 0.00 | 0.00 | 0.00 | 56 | 1011.9 |
| 20260506020546 | 3 | 321 | 11.3 | 0.0 | 0.00 | 0.00 | 0.00 | 56 | 1011.9 |
| 20260506020029 | 3 | 327 | 11.3 | 0.0 | 0.00 | 0.00 | 0.00 | 56 | 1011.7 |
| 20260506015557 | 3 | 325 | 9.7 | 0.0 | 0.00 | 0.00 | 0.00 | 55 | 1011.7 |
| 20260506015027 | 3 | 327 | 8.0 | 0.0 | 0.00 | 0.00 | 0.00 | 54 | 1011.7 |
| 20260506014549 | 4 | 318 | 11.3 | 0.0 | 0.00 | 0.00 | 0.00 | 54 | 1011.4 |
| 20260506014032 | 4 | 309 | 14.5 | 0.0 | 0.00 | 0.00 | 0.00 | 53 | 1011.4 |
| 20260506013551 | 5 | 320 | 14.5 | 0.0 | 0.00 | 0.00 | 0.00 | 52 | 1011.4 |
| 20260506013030 | 5 | 305 | 12.9 | 0.0 | 0.00 | 0.00 | 0.00 | 52 | 1011.5 |
| 20260506012511 | 5 | 310 | 9.7 | 0.0 | 0.00 | 0.00 | 0.00 | 51 | 1011.5 |
| 20260506012036 | 5 | 314 | 9.7 | 0.0 | 0.00 | 0.00 | 0.00 | 51 | 1011.5 |
| 20260506011517 | 5 | 290 | 9.7 | 0.0 | 0.00 | 0.00 | 0.00 | 51 | 1011.5 |
| 20260506011040 | 5 | 300 | 9.7 | 0.0 | 0.00 | 0.00 | 0.00 | 50 | 1011.5 |
| 20260506010521 | 5 | 309 | 12.9 | 0.0 | 0.00 | 0.00 | 0.00 | 51 | 1011.5 |
| 20260506010051 | 5 | 309 | 16.1 | 0.0 | 0.00 | 0.00 | 0.00 | 51 | 1011.3 |
| 20260506005534 | 5 | 303 | 19.3 | 0.0 | 0.00 | 0.00 | 0.00 | 50 | 1011.3 |
| 20260506005050 | 5 | 320 | 19.3 | 0.0 | 0.00 | 0.00 | 0.00 | 50 | 1011.3 |
| 20260506004523 | 5 | 321 | 19.3 | 0.0 | 0.00 | 0.00 | 0.00 | 50 | 1011.3 |
| 20260506004054 | 5 | 338 | 19.3 | 0.0 | 0.00 | 0.00 | 0.00 | 49 | 1011.3 |
| 20260506003522 | 5 | 313 | 22.5 | 0.0 | 0.00 | 0.00 | 0.00 | 49 | 1011.3 |
| 20260506003051 | 6 | 319 | 25.7 | 0.0 | 0.00 | 0.00 | 0.00 | 48 | 1011.1 |
| 20260506002537 | 6 | 319 | 22.5 | 0.0 | 0.00 | 0.00 | 0.00 | 47 | 1011.1 |
| 20260506002056 | 6 | 304 | 20.9 | 0.0 | 0.00 | 0.00 | 0.00 | 47 | 1011.1 |
| 20260506002002 | 6 | 328 | 20.9 | 0.0 | 0.00 | 0.00 | 0.00 | 48 | 1011.1 |